Terminal Aerodrome Forecast
Issued by NWS

Home | Current Version | Previous Version | Text Only | Print | Product List | Glossary Off
Versions: 1 2 3 4 5 6 7 8 9 10 11 12 13 14 15 16 17 18 19 20

000
FTUS43 KABR 221700
TAFATY
TAF
KATY 221740Z 2218/2318 14010KT P6SM SCT120 SCT200
     FM222100 14013G18KT P6SM SCT120 SCT200
     FM230900 13022G29KT P6SM VCSH OVC100=

USA.gov is the U.S. government's official web portal to all federal, state and local government web resources and services.